Back to catalog

QIANFAN-41

AliveCommunicationsPO
NORAD 62242·PAYLOAD·🇨🇳 China

Launched Dec 5, 2024 from Taiyuan Satellite Launch Center

Loading…

Next Passes (next 24 hours)

TLE

FreshSource: Space-Track

Epoch: Sep 14, 2026, 13:44 UTC

1 62242U 24232F   26257.57255590  .00000098  00000-0  13238-3 0  9996
2 62242  89.0157  13.5102 0015857 113.3418 246.9404 13.51029193136493

Track QIANFAN-41 in real time with AllMySat

Download on the App Store